iso_date,epoch_date,Year,Hour,Min,DOY,POS_DOY,Lat,Lon,BP,Ts,Ta,has_bp,has_ts,has_ta,BuoyID,Buoy_Type,Buoy_Owner,Logistics,Hemisphere
2020-07-06T18:00:00Z,1594058400,2020,18,0,188.75,188.75,-60.469,2.105,-999.00,-3.53,-999.0,no,yes,no,300234066416130,SVPGHI,AOML,SA_AGULHAS,South
2020-07-06T19:00:02Z,1594062003,2020,19,0,188.7917,188.7917,-60.47,2.099,-999.00,-3.5,-999.0,no,yes,no,300234066416130,SVPGHI,AOML,SA_AGULHAS,South
2020-07-06T19:59:57Z,1594065597,2020,20,0,188.8333,188.8333,-60.472,2.084,-999.00,-3.47,-999.0,no,yes,no,300234066416130,SVPGHI,AOML,SA_AGULHAS,South
2020-07-06T21:00:00Z,1594069200,2020,21,0,188.875,188.875,-60.472,2.062,-999.00,-3.44,-999.0,no,yes,no,300234066416130,SVPGHI,AOML,SA_AGULHAS,South
2020-07-06T22:00:02Z,1594072803,2020,22,0,188.9167,188.9167,-60.478,2.043,-999.00,-3.41,-999.0,no,yes,no,300234066416130,SVPGHI,AOML,SA_AGULHAS,South
2020-07-06T22:59:57Z,1594076397,2020,23,0,188.9583,188.9583,-60.483,2.039,-999.00,-3.38,-999.0,no,yes,no,300234066416130,SVPGHI,AOML,SA_AGULHAS,South
2020-07-07T00:00:00Z,1594080000,2020,0,0,189.0,189.0,-60.49,2.038,-999.00,-3.36,-999.0,no,yes,no,300234066416130,SVPGHI,AOML,SA_AGULHAS,South
2020-07-07T01:00:02Z,1594083603,2020,1,0,189.0417,189.0417,-60.499,2.043,-999.00,-3.33,-999.0,no,yes,no,300234066416130,SVPGHI,AOML,SA_AGULHAS,South
2020-07-07T01:59:57Z,1594087197,2020,2,0,189.0833,189.0833,-60.503,2.05,-999.00,-3.31,-999.0,no,yes,no,300234066416130,SVPGHI,AOML,SA_AGULHAS,South
2020-07-07T03:00:00Z,1594090800,2020,3,0,189.125,189.125,-60.508,2.048,-999.00,-3.29,-999.0,no,yes,no,300234066416130,SVPGHI,AOML,SA_AGULHAS,South
2020-07-07T04:00:02Z,1594094403,2020,4,0,189.1667,189.1667,-60.513,2.045,-999.00,-3.27,-999.0,no,yes,no,300234066416130,SVPGHI,AOML,SA_AGULHAS,South
2020-07-07T04:59:57Z,1594097997,2020,5,0,189.2083,189.2083,-60.519,2.043,-999.00,-3.26,-999.0,no,yes,no,300234066416130,SVPGHI,AOML,SA_AGULHAS,South
2020-07-07T06:00:00Z,1594101600,2020,6,0,189.25,189.25,-60.526,2.036,-999.00,-3.25,-999.0,no,yes,no,300234066416130,SVPGHI,AOML,SA_AGULHAS,South
2020-07-07T07:00:02Z,1594105203,2020,7,0,189.2917,189.2917,-60.53,2.032,-999.00,-3.23,-999.0,no,yes,no,300234066416130,SVPGHI,AOML,SA_AGULHAS,South
2020-07-07T07:59:57Z,1594108797,2020,8,0,189.3333,189.3333,-60.53,2.027,-999.00,-3.22,-999.0,no,yes,no,300234066416130,SVPGHI,AOML,SA_AGULHAS,South
2020-07-07T09:00:00Z,1594112400,2020,9,0,189.375,189.375,-60.528,2.022,-999.00,-3.21,-999.0,no,yes,no,300234066416130,SVPGHI,AOML,SA_AGULHAS,South
2020-07-07T10:00:02Z,1594116003,2020,10,0,189.4167,189.4167,-60.522,2.009,-999.00,-3.21,-999.0,no,yes,no,300234066416130,SVPGHI,AOML,SA_AGULHAS,South
2020-07-07T10:59:57Z,1594119597,2020,11,0,189.4583,189.4583,-60.516,1.993,-999.00,-3.2,-999.0,no,yes,no,300234066416130,SVPGHI,AOML,SA_AGULHAS,South
2020-07-07T12:00:00Z,1594123200,2020,12,0,189.5,189.5,-60.51,1.978,-999.00,-3.19,-999.0,no,yes,no,300234066416130,SVPGHI,AOML,SA_AGULHAS,South
2020-07-07T13:00:02Z,1594126803,2020,13,0,189.5417,189.5417,-60.504,1.967,-999.00,-3.19,-999.0,no,yes,no,300234066416130,SVPGHI,AOML,SA_AGULHAS,South
2020-07-07T13:59:57Z,1594130397,2020,14,0,189.5833,189.5833,-60.499,1.958,-999.00,-3.19,-999.0,no,yes,no,300234066416130,SVPGHI,AOML,SA_AGULHAS,South
2020-07-07T15:00:00Z,1594134000,2020,15,0,189.625,189.625,-60.495,1.952,-999.00,-3.19,-999.0,no,yes,no,300234066416130,SVPGHI,AOML,SA_AGULHAS,South
2020-07-07T16:00:02Z,1594137603,2020,16,0,189.6667,189.6667,-60.49,1.95,-999.00,-3.19,-999.0,no,yes,no,300234066416130,SVPGHI,AOML,SA_AGULHAS,South
2020-07-07T16:59:57Z,1594141197,2020,17,0,189.7083,189.7083,-60.486,1.951,-999.00,-3.19,-999.0,no,yes,no,300234066416130,SVPGHI,AOML,SA_AGULHAS,South
2020-07-07T18:00:00Z,1594144800,2020,18,0,189.75,189.75,-60.482,1.954,-999.00,-3.19,-999.0,no,yes,no,300234066416130,SVPGHI,AOML,SA_AGULHAS,South
2020-07-07T19:00:02Z,1594148403,2020,19,0,189.7917,189.7917,-60.479,1.961,-999.00,-3.18,-999.0,no,yes,no,300234066416130,SVPGHI,AOML,SA_AGULHAS,South
2020-07-07T19:59:57Z,1594151997,2020,20,0,189.8333,189.8333,-60.476,1.968,-999.00,-3.18,-999.0,no,yes,no,300234066416130,SVPGHI,AOML,SA_AGULHAS,South
2020-07-07T21:00:00Z,1594155600,2020,21,0,189.875,189.875,-60.473,1.972,-999.00,-3.17,-999.0,no,yes,no,300234066416130,SVPGHI,AOML,SA_AGULHAS,South
2020-07-07T22:00:02Z,1594159203,2020,22,0,189.9167,189.9167,-60.467,1.969,-999.00,-3.17,-999.0,no,yes,no,300234066416130,SVPGHI,AOML,SA_AGULHAS,South
2020-07-07T22:59:57Z,1594162797,2020,23,0,189.9583,189.9583,-60.464,1.964,-999.00,-3.16,-999.0,no,yes,no,300234066416130,SVPGHI,AOML,SA_AGULHAS,South
2020-07-08T00:00:00Z,1594166400,2020,0,0,190.0,190.0,-60.459,1.96,-999.00,-3.16,-999.0,no,yes,no,300234066416130,SVPGHI,AOML,SA_AGULHAS,South
2020-07-08T01:00:02Z,1594170003,2020,1,0,190.0417,190.0417,-60.455,1.956,-999.00,-3.15,-999.0,no,yes,no,300234066416130,SVPGHI,AOML,SA_AGULHAS,South
2020-07-08T01:59:57Z,1594173597,2020,2,0,190.0833,190.0833,-60.452,1.949,-999.00,-3.15,-999.0,no,yes,no,300234066416130,SVPGHI,AOML,SA_AGULHAS,South
2020-07-08T03:00:00Z,1594177200,2020,3,0,190.125,190.125,-60.451,1.942,-999.00,-3.16,-999.0,no,yes,no,300234066416130,SVPGHI,AOML,SA_AGULHAS,South
2020-07-08T04:00:02Z,1594180803,2020,4,0,190.1667,190.1667,-60.449,1.937,-999.00,-3.16,-999.0,no,yes,no,300234066416130,SVPGHI,AOML,SA_AGULHAS,South
2020-07-08T04:59:57Z,1594184397,2020,5,0,190.2083,190.2083,-60.447,1.936,-999.00,-3.16,-999.0,no,yes,no,300234066416130,SVPGHI,AOML,SA_AGULHAS,South
2020-07-08T06:00:00Z,1594188000,2020,6,0,190.25,190.25,-60.445,1.937,-999.00,-3.17,-999.0,no,yes,no,300234066416130,SVPGHI,AOML,SA_AGULHAS,South
2020-07-08T07:00:02Z,1594191603,2020,7,0,190.2917,190.2917,-60.443,1.94,-999.00,-3.17,-999.0,no,yes,no,300234066416130,SVPGHI,AOML,SA_AGULHAS,South
2020-07-08T07:59:57Z,1594195197,2020,8,0,190.3333,190.3333,-60.44,1.943,-999.00,-3.18,-999.0,no,yes,no,300234066416130,SVPGHI,AOML,SA_AGULHAS,South
2020-07-08T09:00:00Z,1594198800,2020,9,0,190.375,190.375,-60.437,1.948,-999.00,-3.19,-999.0,no,yes,no,300234066416130,SVPGHI,AOML,SA_AGULHAS,South
2020-07-08T10:00:02Z,1594202403,2020,10,0,190.4167,190.4167,-60.433,1.954,-999.00,-3.19,-999.0,no,yes,no,300234066416130,SVPGHI,AOML,SA_AGULHAS,South
2020-07-08T10:59:57Z,1594205997,2020,11,0,190.4583,190.4583,-60.428,1.963,-999.00,-3.19,-999.0,no,yes,no,300234066416130,SVPGHI,AOML,SA_AGULHAS,South
2020-07-08T12:00:00Z,1594209600,2020,12,0,190.5,190.5,-60.419,1.969,-999.00,-3.19,-999.0,no,yes,no,300234066416130,SVPGHI,AOML,SA_AGULHAS,South
2020-07-08T13:00:02Z,1594213203,2020,13,0,190.5417,190.5417,-60.41,1.975,-999.00,-3.19,-999.0,no,yes,no,300234066416130,SVPGHI,AOML,SA_AGULHAS,South
2020-07-08T13:59:57Z,1594216797,2020,14,0,190.5833,190.5833,-60.401,1.977,-999.00,-3.19,-999.0,no,yes,no,300234066416130,SVPGHI,AOML,SA_AGULHAS,South
2020-07-08T15:00:00Z,1594220400,2020,15,0,190.625,190.625,-60.392,1.977,-999.00,-3.19,-999.0,no,yes,no,300234066416130,SVPGHI,AOML,SA_AGULHAS,South
2020-07-08T16:00:02Z,1594224003,2020,16,0,190.6667,190.6667,-60.385,1.973,-999.00,-3.19,-999.0,no,yes,no,300234066416130,SVPGHI,AOML,SA_AGULHAS,South
2020-07-08T16:59:57Z,1594227597,2020,17,0,190.7083,190.7083,-60.379,1.97,-999.00,-3.2,-999.0,no,yes,no,300234066416130,SVPGHI,AOML,SA_AGULHAS,South
2020-07-08T18:00:00Z,1594231200,2020,18,0,190.75,190.75,-60.376,1.968,-999.00,-3.2,-999.0,no,yes,no,300234066416130,SVPGHI,AOML,SA_AGULHAS,South
2020-07-08T19:00:02Z,1594234803,2020,19,0,190.7917,190.7917,-60.374,1.969,-999.00,-3.2,-999.0,no,yes,no,300234066416130,SVPGHI,AOML,SA_AGULHAS,South
2020-07-08T19:59:57Z,1594238397,2020,20,0,190.8333,190.8333,-60.373,1.972,-999.00,-3.21,-999.0,no,yes,no,300234066416130,SVPGHI,AOML,SA_AGULHAS,South
2020-07-08T21:00:00Z,1594242000,2020,21,0,190.875,190.875,-60.371,1.98,-999.00,-3.22,-999.0,no,yes,no,300234066416130,SVPGHI,AOML,SA_AGULHAS,South
2020-07-08T22:00:02Z,1594245603,2020,22,0,190.9167,190.9167,-60.366,1.988,-999.00,-3.22,-999.0,no,yes,no,300234066416130,SVPGHI,AOML,SA_AGULHAS,South
2020-07-08T22:59:57Z,1594249197,2020,23,0,190.9583,190.9583,-60.358,1.998,-999.00,-3.23,-999.0,no,yes,no,300234066416130,SVPGHI,AOML,SA_AGULHAS,South
2020-07-09T00:00:00Z,1594252800,2020,0,0,191.0,191.0,-60.351,2.008,-999.00,-3.24,-999.0,no,yes,no,300234066416130,SVPGHI,AOML,SA_AGULHAS,South
2020-07-09T01:00:02Z,1594256403,2020,1,0,191.0417,191.0417,-60.345,2.012,-999.00,-3.25,-999.0,no,yes,no,300234066416130,SVPGHI,AOML,SA_AGULHAS,South
2020-07-09T01:59:57Z,1594259997,2020,2,0,191.0833,191.0833,-60.337,2.015,-999.00,-3.26,-999.0,no,yes,no,300234066416130,SVPGHI,AOML,SA_AGULHAS,South
2020-07-09T03:00:00Z,1594263600,2020,3,0,191.125,191.125,-60.33,2.013,-999.00,-3.27,-999.0,no,yes,no,300234066416130,SVPGHI,AOML,SA_AGULHAS,South
2020-07-09T04:00:02Z,1594267203,2020,4,0,191.1667,191.1667,-60.323,2.007,-999.00,-3.28,-999.0,no,yes,no,300234066416130,SVPGHI,AOML,SA_AGULHAS,South
2020-07-09T04:59:57Z,1594270797,2020,5,0,191.2083,191.2083,-60.32,2.003,-999.00,-3.29,-999.0,no,yes,no,300234066416130,SVPGHI,AOML,SA_AGULHAS,South
2020-07-09T06:00:00Z,1594274400,2020,6,0,191.25,191.25,-60.318,1.997,-999.00,-3.3,-999.0,no,yes,no,300234066416130,SVPGHI,AOML,SA_AGULHAS,South
2020-07-09T07:00:02Z,1594278003,2020,7,0,191.2917,191.2917,-60.319,1.991,-999.00,-3.3,-999.0,no,yes,no,300234066416130,SVPGHI,AOML,SA_AGULHAS,South
2020-07-09T07:59:57Z,1594281597,2020,8,0,191.3333,191.3333,-60.32,1.984,-999.00,-3.31,-999.0,no,yes,no,300234066416130,SVPGHI,AOML,SA_AGULHAS,South
2020-07-09T09:00:00Z,1594285200,2020,9,0,191.375,191.375,-60.324,1.985,-999.00,-3.32,-999.0,no,yes,no,300234066416130,SVPGHI,AOML,SA_AGULHAS,South
2020-07-09T10:00:02Z,1594288803,2020,10,0,191.4167,191.4167,-60.327,1.987,-999.00,-3.32,-999.0,no,yes,no,300234066416130,SVPGHI,AOML,SA_AGULHAS,South
2020-07-09T10:59:57Z,1594292397,2020,11,0,191.4583,191.4583,-60.329,1.99,-999.00,-3.31,-999.0,no,yes,no,300234066416130,SVPGHI,AOML,SA_AGULHAS,South
2020-07-09T12:00:00Z,1594296000,2020,12,0,191.5,191.5,-60.329,1.995,-999.00,-3.31,-999.0,no,yes,no,300234066416130,SVPGHI,AOML,SA_AGULHAS,South
2020-07-09T13:00:02Z,1594299603,2020,13,0,191.5417,191.5417,-60.327,1.999,-999.00,-3.31,-999.0,no,yes,no,300234066416130,SVPGHI,AOML,SA_AGULHAS,South
2020-07-09T13:59:57Z,1594303197,2020,14,0,191.5833,191.5833,-60.323,2.002,-999.00,-3.32,-999.0,no,yes,no,300234066416130,SVPGHI,AOML,SA_AGULHAS,South
2020-07-09T15:00:00Z,1594306800,2020,15,0,191.625,191.625,-60.318,1.999,-999.00,-3.33,-999.0,no,yes,no,300234066416130,SVPGHI,AOML,SA_AGULHAS,South
2020-07-09T16:00:02Z,1594310403,2020,16,0,191.6667,191.6667,-60.312,1.992,-999.00,-3.34,-999.0,no,yes,no,300234066416130,SVPGHI,AOML,SA_AGULHAS,South
2020-07-09T16:59:57Z,1594313997,2020,17,0,191.7083,191.7083,-60.308,1.98,-999.00,-3.35,-999.0,no,yes,no,300234066416130,SVPGHI,AOML,SA_AGULHAS,South
2020-07-09T18:00:00Z,1594317600,2020,18,0,191.75,191.75,-60.305,1.963,-999.00,-3.36,-999.0,no,yes,no,300234066416130,SVPGHI,AOML,SA_AGULHAS,South
2020-07-09T19:00:02Z,1594321203,2020,19,0,191.7917,191.7917,-60.301,1.941,-999.00,-3.37,-999.0,no,yes,no,300234066416130,SVPGHI,AOML,SA_AGULHAS,South
2020-07-09T19:59:57Z,1594324797,2020,20,0,191.8333,191.8333,-60.301,1.918,-999.00,-3.38,-999.0,no,yes,no,300234066416130,SVPGHI,AOML,SA_AGULHAS,South
2020-07-09T21:00:00Z,1594328400,2020,21,0,191.875,191.875,-60.303,1.889,-999.00,-3.39,-999.0,no,yes,no,300234066416130,SVPGHI,AOML,SA_AGULHAS,South
2020-07-09T22:00:02Z,1594332003,2020,22,0,191.9167,191.9167,-60.301,1.883,-999.00,-3.4,-999.0,no,yes,no,300234066416130,SVPGHI,AOML,SA_AGULHAS,South
2020-07-09T22:59:57Z,1594335597,2020,23,0,191.9583,191.9583,-60.302,1.874,-999.00,-3.41,-999.0,no,yes,no,300234066416130,SVPGHI,AOML,SA_AGULHAS,South
2020-07-10T00:00:00Z,1594339200,2020,0,0,192.0,192.0,-60.301,1.871,-999.00,-3.42,-999.0,no,yes,no,300234066416130,SVPGHI,AOML,SA_AGULHAS,South
2020-07-10T01:00:02Z,1594342803,2020,1,0,192.0417,192.0417,-60.298,1.87,-999.00,-3.43,-999.0,no,yes,no,300234066416130,SVPGHI,AOML,SA_AGULHAS,South
2020-07-10T01:59:57Z,1594346397,2020,2,0,192.0833,192.0833,-60.292,1.871,-999.00,-3.44,-999.0,no,yes,no,300234066416130,SVPGHI,AOML,SA_AGULHAS,South
2020-07-10T03:00:00Z,1594350000,2020,3,0,192.125,192.125,-60.283,1.87,-999.00,-3.45,-999.0,no,yes,no,300234066416130,SVPGHI,AOML,SA_AGULHAS,South
2020-07-10T04:00:02Z,1594353603,2020,4,0,192.1667,192.1667,-60.273,1.868,-999.00,-3.46,-999.0,no,yes,no,300234066416130,SVPGHI,AOML,SA_AGULHAS,South
2020-07-10T04:59:57Z,1594357197,2020,5,0,192.2083,192.2083,-60.263,1.861,-999.00,-3.46,-999.0,no,yes,no,300234066416130,SVPGHI,AOML,SA_AGULHAS,South
2020-07-10T06:00:00Z,1594360800,2020,6,0,192.25,192.25,-60.252,1.851,-999.00,-3.47,-999.0,no,yes,no,300234066416130,SVPGHI,AOML,SA_AGULHAS,South
2020-07-10T07:00:02Z,1594364403,2020,7,0,192.2917,192.2917,-60.244,1.837,-999.00,-3.47,-999.0,no,yes,no,300234066416130,SVPGHI,AOML,SA_AGULHAS,South
2020-07-10T07:59:57Z,1594367997,2020,8,0,192.3333,192.3333,-60.237,1.823,-999.00,-3.47,-999.0,no,yes,no,300234066416130,SVPGHI,AOML,SA_AGULHAS,South
2020-07-10T09:00:00Z,1594371600,2020,9,0,192.375,192.375,-60.23,1.809,-999.00,-3.47,-999.0,no,yes,no,300234066416130,SVPGHI,AOML,SA_AGULHAS,South
2020-07-10T10:00:02Z,1594375203,2020,10,0,192.4167,192.4167,-60.225,1.8,-999.00,-3.47,-999.0,no,yes,no,300234066416130,SVPGHI,AOML,SA_AGULHAS,South
2020-07-10T10:59:57Z,1594378797,2020,11,0,192.4583,192.4583,-60.222,1.793,-999.00,-3.47,-999.0,no,yes,no,300234066416130,SVPGHI,AOML,SA_AGULHAS,South
2020-07-10T12:00:00Z,1594382400,2020,12,0,192.5,192.5,-60.22,1.79,-999.00,-3.47,-999.0,no,yes,no,300234066416130,SVPGHI,AOML,SA_AGULHAS,South
2020-07-10T13:00:02Z,1594386003,2020,13,0,192.5417,192.5417,-60.214,1.797,-999.00,-3.47,-999.0,no,yes,no,300234066416130,SVPGHI,AOML,SA_AGULHAS,South
2020-07-10T13:59:57Z,1594389597,2020,14,0,192.5833,192.5833,-60.21,1.806,-999.00,-3.47,-999.0,no,yes,no,300234066416130,SVPGHI,AOML,SA_AGULHAS,South
2020-07-10T15:00:00Z,1594393200,2020,15,0,192.625,192.625,-60.202,1.819,-999.00,-3.48,-999.0,no,yes,no,300234066416130,SVPGHI,AOML,SA_AGULHAS,South
2020-07-10T16:00:02Z,1594396803,2020,16,0,192.6667,192.6667,-60.191,1.834,-999.00,-3.49,-999.0,no,yes,no,300234066416130,SVPGHI,AOML,SA_AGULHAS,South
2020-07-10T16:59:57Z,1594400397,2020,17,0,192.7083,192.7083,-60.179,1.845,-999.00,-3.51,-999.0,no,yes,no,300234066416130,SVPGHI,AOML,SA_AGULHAS,South
2020-07-10T18:00:00Z,1594404000,2020,18,0,192.75,192.75,-60.165,1.855,-999.00,-3.53,-999.0,no,yes,no,300234066416130,SVPGHI,AOML,SA_AGULHAS,South
2020-07-10T19:00:02Z,1594407603,2020,19,0,192.7917,192.7917,-60.152,1.859,-999.00,-3.56,-999.0,no,yes,no,300234066416130,SVPGHI,AOML,SA_AGULHAS,South
2020-07-10T19:59:57Z,1594411197,2020,20,0,192.8333,192.8333,-60.141,1.861,-999.00,-3.59,-999.0,no,yes,no,300234066416130,SVPGHI,AOML,SA_AGULHAS,South
2020-07-10T21:00:00Z,1594414800,2020,21,0,192.875,192.875,-60.131,1.862,-999.00,-3.63,-999.0,no,yes,no,300234066416130,SVPGHI,AOML,SA_AGULHAS,South
2020-07-10T22:00:02Z,1594418403,2020,22,0,192.9167,192.9167,-60.122,1.865,-999.00,-3.67,-999.0,no,yes,no,300234066416130,SVPGHI,AOML,SA_AGULHAS,South
2020-07-10T22:59:57Z,1594421997,2020,23,0,192.9583,192.9583,-60.116,1.866,-999.00,-3.71,-999.0,no,yes,no,300234066416130,SVPGHI,AOML,SA_AGULHAS,South
2020-07-11T00:00:00Z,1594425600,2020,0,0,193.0,193.0,-60.112,1.869,-999.00,-3.74,-999.0,no,yes,no,300234066416130,SVPGHI,AOML,SA_AGULHAS,South
2020-07-11T01:00:02Z,1594429203,2020,1,0,193.0417,193.0417,-60.108,1.877,-999.00,-3.78,-999.0,no,yes,no,300234066416130,SVPGHI,AOML,SA_AGULHAS,South
2020-07-11T01:59:57Z,1594432797,2020,2,0,193.0833,193.0833,-60.107,1.885,-999.00,-3.82,-999.0,no,yes,no,300234066416130,SVPGHI,AOML,SA_AGULHAS,South
2020-07-11T03:00:00Z,1594436400,2020,3,0,193.125,193.125,-60.105,1.899,-999.00,-3.85,-999.0,no,yes,no,300234066416130,SVPGHI,AOML,SA_AGULHAS,South
2020-07-11T04:00:02Z,1594440003,2020,4,0,193.1667,193.1667,-60.102,1.915,-999.00,-3.89,-999.0,no,yes,no,300234066416130,SVPGHI,AOML,SA_AGULHAS,South
2020-07-11T04:59:57Z,1594443597,2020,5,0,193.2083,193.2083,-60.099,1.935,-999.00,-3.92,-999.0,no,yes,no,300234066416130,SVPGHI,AOML,SA_AGULHAS,South
2020-07-11T06:00:00Z,1594447200,2020,6,0,193.25,193.25,-60.095,1.954,-999.00,-3.96,-999.0,no,yes,no,300234066416130,SVPGHI,AOML,SA_AGULHAS,South
2020-07-11T07:00:02Z,1594450803,2020,7,0,193.2917,193.2917,-60.089,1.972,-999.00,-3.99,-999.0,no,yes,no,300234066416130,SVPGHI,AOML,SA_AGULHAS,South
2020-07-11T07:59:57Z,1594454397,2020,8,0,193.3333,193.3333,-60.083,1.989,-999.00,-4.02,-999.0,no,yes,no,300234066416130,SVPGHI,AOML,SA_AGULHAS,South
2020-07-11T09:00:00Z,1594458000,2020,9,0,193.375,193.375,-60.076,2.0,-999.00,-4.05,-999.0,no,yes,no,300234066416130,SVPGHI,AOML,SA_AGULHAS,South
2020-07-11T10:00:02Z,1594461603,2020,10,0,193.4167,193.4167,-60.071,2.007,-999.00,-4.08,-999.0,no,yes,no,300234066416130,SVPGHI,AOML,SA_AGULHAS,South
2020-07-11T10:59:57Z,1594465197,2020,11,0,193.4583,193.4583,-60.066,2.012,-999.00,-4.1,-999.0,no,yes,no,300234066416130,SVPGHI,AOML,SA_AGULHAS,South
2020-07-11T12:00:00Z,1594468800,2020,12,0,193.5,193.5,-60.063,2.015,-999.00,-4.12,-999.0,no,yes,no,300234066416130,SVPGHI,AOML,SA_AGULHAS,South
2020-07-11T13:00:02Z,1594472403,2020,13,0,193.5417,193.5417,-60.062,2.017,-999.00,-4.13,-999.0,no,yes,no,300234066416130,SVPGHI,AOML,SA_AGULHAS,South
2020-07-11T13:59:57Z,1594475997,2020,14,0,193.5833,193.5833,-60.063,2.022,-999.00,-4.15,-999.0,no,yes,no,300234066416130,SVPGHI,AOML,SA_AGULHAS,South
2020-07-11T15:00:00Z,1594479600,2020,15,0,193.625,193.625,-60.065,2.034,-999.00,-4.17,-999.0,no,yes,no,300234066416130,SVPGHI,AOML,SA_AGULHAS,South
2020-07-11T16:00:02Z,1594483203,2020,16,0,193.6667,193.6667,-60.064,2.051,-999.00,-4.19,-999.0,no,yes,no,300234066416130,SVPGHI,AOML,SA_AGULHAS,South
2020-07-11T16:59:57Z,1594486797,2020,17,0,193.7083,193.7083,-60.065,2.068,-999.00,-4.21,-999.0,no,yes,no,300234066416130,SVPGHI,AOML,SA_AGULHAS,South
2020-07-11T18:00:00Z,1594490400,2020,18,0,193.75,193.75,-60.064,2.09,-999.00,-4.23,-999.0,no,yes,no,300234066416130,SVPGHI,AOML,SA_AGULHAS,South
2020-07-11T19:00:02Z,1594494003,2020,19,0,193.7917,193.7917,-60.063,2.112,-999.00,-4.26,-999.0,no,yes,no,300234066416130,SVPGHI,AOML,SA_AGULHAS,South
2020-07-11T19:59:57Z,1594497597,2020,20,0,193.8333,193.8333,-60.062,2.134,-999.00,-4.29,-999.0,no,yes,no,300234066416130,SVPGHI,AOML,SA_AGULHAS,South
2020-07-11T21:00:00Z,1594501200,2020,21,0,193.875,193.875,-60.058,2.154,-999.00,-4.32,-999.0,no,yes,no,300234066416130,SVPGHI,AOML,SA_AGULHAS,South
2020-07-11T22:00:02Z,1594504803,2020,22,0,193.9167,193.9167,-60.055,2.171,-999.00,-4.35,-999.0,no,yes,no,300234066416130,SVPGHI,AOML,SA_AGULHAS,South
2020-07-11T22:59:57Z,1594508397,2020,23,0,193.9583,193.9583,-60.05,2.187,-999.00,-4.38,-999.0,no,yes,no,300234066416130,SVPGHI,AOML,SA_AGULHAS,South
2020-07-12T00:00:00Z,1594512000,2020,0,0,194.0,194.0,-60.045,2.2,-999.00,-4.41,-999.0,no,yes,no,300234066416130,SVPGHI,AOML,SA_AGULHAS,South
2020-07-12T01:00:02Z,1594515603,2020,1,0,194.0417,194.0417,-60.04,2.213,-999.00,-4.43,-999.0,no,yes,no,300234066416130,SVPGHI,AOML,SA_AGULHAS,South
2020-07-12T01:59:57Z,1594519197,2020,2,0,194.0833,194.0833,-60.039,2.219,-999.00,-4.46,-999.0,no,yes,no,300234066416130,SVPGHI,AOML,SA_AGULHAS,South
2020-07-12T03:00:00Z,1594522800,2020,3,0,194.125,194.125,-60.038,2.232,-999.00,-4.5,-999.0,no,yes,no,300234066416130,SVPGHI,AOML,SA_AGULHAS,South
2020-07-12T04:00:02Z,1594526403,2020,4,0,194.1667,194.1667,-60.037,2.243,-999.00,-4.53,-999.0,no,yes,no,300234066416130,SVPGHI,AOML,SA_AGULHAS,South
2020-07-12T04:59:57Z,1594529997,2020,5,0,194.2083,194.2083,-60.038,2.255,-999.00,-4.56,-999.0,no,yes,no,300234066416130,SVPGHI,AOML,SA_AGULHAS,South
2020-07-12T06:00:00Z,1594533600,2020,6,0,194.25,194.25,-60.04,2.267,-999.00,-4.6,-999.0,no,yes,no,300234066416130,SVPGHI,AOML,SA_AGULHAS,South
2020-07-12T07:00:02Z,1594537203,2020,7,0,194.2917,194.2917,-60.043,2.282,-999.00,-4.63,-999.0,no,yes,no,300234066416130,SVPGHI,AOML,SA_AGULHAS,South
2020-07-12T07:59:57Z,1594540797,2020,8,0,194.3333,194.3333,-60.045,2.301,-999.00,-4.65,-999.0,no,yes,no,300234066416130,SVPGHI,AOML,SA_AGULHAS,South
2020-07-12T09:00:00Z,1594544400,2020,9,0,194.375,194.375,-60.047,2.319,-999.00,-4.67,-999.0,no,yes,no,300234066416130,SVPGHI,AOML,SA_AGULHAS,South
2020-07-12T10:00:02Z,1594548003,2020,10,0,194.4167,194.4167,-60.048,2.337,-999.00,-4.68,-999.0,no,yes,no,300234066416130,SVPGHI,AOML,SA_AGULHAS,South
2020-07-12T10:59:57Z,1594551597,2020,11,0,194.4583,194.4583,-60.048,2.354,-999.00,-4.69,-999.0,no,yes,no,300234066416130,SVPGHI,AOML,SA_AGULHAS,South
2020-07-12T12:00:00Z,1594555200,2020,12,0,194.5,194.5,-60.048,2.37,-999.00,-4.7,-999.0,no,yes,no,300234066416130,SVPGHI,AOML,SA_AGULHAS,South
2020-07-12T13:00:02Z,1594558803,2020,13,0,194.5417,194.5417,-60.046,2.387,-999.00,-4.71,-999.0,no,yes,no,300234066416130,SVPGHI,AOML,SA_AGULHAS,South
2020-07-12T13:59:57Z,1594562397,2020,14,0,194.5833,194.5833,-60.044,2.402,-999.00,-4.72,-999.0,no,yes,no,300234066416130,SVPGHI,AOML,SA_AGULHAS,South
2020-07-12T15:00:00Z,1594566000,2020,15,0,194.625,194.625,-60.043,2.415,-999.00,-4.73,-999.0,no,yes,no,300234066416130,SVPGHI,AOML,SA_AGULHAS,South
2020-07-12T16:00:02Z,1594569603,2020,16,0,194.6667,194.6667,-60.042,2.428,-999.00,-4.74,-999.0,no,yes,no,300234066416130,SVPGHI,AOML,SA_AGULHAS,South
2020-07-12T16:59:57Z,1594573197,2020,17,0,194.7083,194.7083,-60.042,2.441,-999.00,-4.75,-999.0,no,yes,no,300234066416130,SVPGHI,AOML,SA_AGULHAS,South
2020-07-12T18:00:00Z,1594576800,2020,18,0,194.75,194.75,-60.044,2.452,-999.00,-4.76,-999.0,no,yes,no,300234066416130,SVPGHI,AOML,SA_AGULHAS,South
2020-07-12T19:00:02Z,1594580403,2020,19,0,194.7917,194.7917,-60.047,2.464,-999.00,-4.77,-999.0,no,yes,no,300234066416130,SVPGHI,AOML,SA_AGULHAS,South
2020-07-12T19:59:57Z,1594583997,2020,20,0,194.8333,194.8333,-60.048,2.479,-999.00,-4.77,-999.0,no,yes,no,300234066416130,SVPGHI,AOML,SA_AGULHAS,South
2020-07-12T21:00:00Z,1594587600,2020,21,0,194.875,194.875,-60.051,2.492,-999.00,-4.78,-999.0,no,yes,no,300234066416130,SVPGHI,AOML,SA_AGULHAS,South
2020-07-12T22:00:02Z,1594591203,2020,22,0,194.9167,194.9167,-60.053,2.509,-999.00,-4.79,-999.0,no,yes,no,300234066416130,SVPGHI,AOML,SA_AGULHAS,South
2020-07-12T22:59:57Z,1594594797,2020,23,0,194.9583,194.9583,-60.054,2.525,-999.00,-4.79,-999.0,no,yes,no,300234066416130,SVPGHI,AOML,SA_AGULHAS,South
2020-07-13T00:00:00Z,1594598400,2020,0,0,195.0,195.0,-60.054,2.541,-999.00,-4.8,-999.0,no,yes,no,300234066416130,SVPGHI,AOML,SA_AGULHAS,South
2020-07-13T01:00:02Z,1594602003,2020,1,0,195.0417,195.0417,-60.053,2.554,-999.00,-4.8,-999.0,no,yes,no,300234066416130,SVPGHI,AOML,SA_AGULHAS,South
2020-07-13T01:59:57Z,1594605597,2020,2,0,195.0833,195.0833,-60.052,2.562,-999.00,-4.8,-999.0,no,yes,no,300234066416130,SVPGHI,AOML,SA_AGULHAS,South
2020-07-13T03:00:00Z,1594609200,2020,3,0,195.125,195.125,-60.049,2.569,-999.00,-4.8,-999.0,no,yes,no,300234066416130,SVPGHI,AOML,SA_AGULHAS,South
2020-07-13T04:00:02Z,1594612803,2020,4,0,195.1667,195.1667,-60.048,2.572,-999.00,-4.8,-999.0,no,yes,no,300234066416130,SVPGHI,AOML,SA_AGULHAS,South
2020-07-13T04:59:57Z,1594616397,2020,5,0,195.2083,195.2083,-60.048,2.573,-999.00,-4.8,-999.0,no,yes,no,300234066416130,SVPGHI,AOML,SA_AGULHAS,South
2020-07-13T06:00:00Z,1594620000,2020,6,0,195.25,195.25,-60.049,2.575,-999.00,-4.8,-999.0,no,yes,no,300234066416130,SVPGHI,AOML,SA_AGULHAS,South
2020-07-13T07:00:02Z,1594623603,2020,7,0,195.2917,195.2917,-60.05,2.577,-999.00,-4.79,-999.0,no,yes,no,300234066416130,SVPGHI,AOML,SA_AGULHAS,South
2020-07-13T07:59:57Z,1594627197,2020,8,0,195.3333,195.3333,-60.053,2.58,-999.00,-4.77,-999.0,no,yes,no,300234066416130,SVPGHI,AOML,SA_AGULHAS,South
2020-07-13T09:00:00Z,1594630800,2020,9,0,195.375,195.375,-60.054,2.587,-999.00,-4.75,-999.0,no,yes,no,300234066416130,SVPGHI,AOML,SA_AGULHAS,South
2020-07-13T10:00:02Z,1594634403,2020,10,0,195.4167,195.4167,-60.056,2.596,-999.00,-4.73,-999.0,no,yes,no,300234066416130,SVPGHI,AOML,SA_AGULHAS,South